Regional Weather Roundup
Issued by NWS Raleigh/Durham, NC

Home | Current Version | Previous Version | Text Only | Print | Product List | Glossary On
Versions: 1 2 3 4 5 6 7 8 9 10 11 12 13 14 15 16 17 18 19 20 21 22 23 24 25 26 27 28 29 30 31 32 33 34 35 36 37 38 39 40 41 42 43 44 45 46 47 48 49 50
000
ASUS42 KRAH 231410
RWRRAH
NORTH CAROLINA WEATHER ROUNDUP
NATIONAL WEATHER SERVICE RALEIGH NC
1000 AM EDT SAT MAY 23 2015

NOTE: "FAIR" INDICATES FEW OR NO CLOUDS BELOW 12,000 FEET WITH NO
SIGNIFICANT WEATHER AND/OR OBSTRUCTIONS TO VISIBILITY.

NCZ001-053-055-056-065-067-231500-
WESTERN NORTH CAROLINA

CITY           SKY/WX    TMP DP  RH WIND       PRES   REMARKS
ASHEVILLE      SUNNY     61  42  49 SE3       30.47S
JEFFERSON      MOSUNNY   59  40  48 CALM      30.49R
MORGANTON      SUNNY     64  44  47 NW3       30.50S
HICKORY        SUNNY     68  42  38 CALM      30.45R
RUTHERFORDTON  SUNNY     68  47  46 CALM      30.45S
MOUNT AIRY     MOSUNNY   70  51  51 SW3       30.46S
BOONE          SUNNY     62  39  42 S9        30.49R
$$

NCZ021-022-025-041-071-084-088-231500-
CENTRAL NORTH CAROLINA

CITY           SKY/WX    TMP DP  RH WIND       PRES   REMARKS
CHARLOTTE      MOSUNNY   72  41  32 VRB5      30.44R
GREENSBORO     MOSUNNY   69  47  45 E10       30.45R
WINSTON-SALEM  MOSUNNY   69  47  45 E3        30.45R
RALEIGH-DURHAM MOSUNNY   67  47  48 NE7       30.45R
FORT BRAGG     NOT AVBL
FAYETTEVILLE   SUNNY     72  51  47 N14G23    30.42R
BURLINGTON     SUNNY     67  48  50 NE12      30.45R
LAURINBURG     SUNNY     73  49  42 E8        30.42S
$$

NCZ011-015-027-028-043-044-047-080-103-231500-
NORTHEASTERN NORTH CAROLINA

CITY           SKY/WX    TMP DP  RH WIND       PRES   REMARKS
ROCKY MT-WILSO MOSUNNY   69  45  41 NE10      30.44R
GREENVILLE     MOSUNNY   70  52  52 NE12      30.42S
WASHINGTON     SUNNY     69  53  57 NE9       30.42S
ELIZABETH CITY SUNNY     69  45  41 NE15      30.43R
MANTEO         SUNNY     67  50  55 NE15      30.42R
CAPE HATTERAS  SUNNY     72  52  49 VRB7G18   30.41R
$$

NCZ078-087-090-091-093-098-101-231500-
SOUTHEASTERN NORTH CAROLINA

CITY           SKY/WX    TMP DP  RH WIND       PRES   REMARKS
LUMBERTON      SUNNY     74  50  42 NE6       30.41R
GOLDSBORO      NOT AVBL
KINSTON        SUNNY     68  52  56 NE8       30.43R
KENANSVILLE    SUNNY     71  50  48 N6        30.43S
NEW BERN       SUNNY     72  51  47 N8        30.42R
CHERRY POINT   SUNNY     73  50  44 N10       30.42R
BEAUFORT       SUNNY     74  53  48 N7        30.40R
JACKSONVILLE   SUNNY     73  49  42 N7        30.40R
WILMINGTON     SUNNY     73  51  46 NE7       30.40R
$$



USA.gov is the U.S. government's official web portal to all federal, state and local government web resources and services.